Location: Bessat
(45.8735°N, 1.9924°E)
Time: 09:16:59
(UTC+00:00)

Cosmos 1812 - Pass Details

Date: 11 May 2021
Orbit: 514 x 521 km, 82.5° (Epoch: 15 June)

Event Time Altitude Azimuth Distance (km) Brightness Sun altitude
Exits shadow 20:47:23 22° 160° (SSE) 1,168 3.9 -14.0°
Maximum altitude 20:49:34 49° 94° (E) 679 3.0 -14.3°
Drops below altitude 10° 20:53:19 10° 19° (NNE) 1,768 5.8 -14.8°
Sets 20:55:30 0° 14° (NNE) 2,661 6.8 -15.0°
